Lapse_Rate
-1.9 -2.0 -2.3 -2.6 -2.7 -3.1 -3.3 -3.5 -3.6 -3.8 -4.2 -4.6 -5.1 -5.5 -5.8 -6.1 -5.5 -2.6 2.5 4.1 3.3 1.7 2.6 4.6 5.1 6.0 7.3 4.8 4.7 4.2 6.5 6.5 6.5 6.5 6.5 6.9 6.5 7.5 7.6 7.3 7.4 7.8 7.2 7.2 6.6
-2.0 -2.2 -2.2 -2.5 -2.7 -3.0 -3.3 -3.6 -3.8 -3.9 -4.3 -4.7 -5.1 -5.5 -5.9 -6.3 -3.6 0.4 2.8 4.0 2.1 1.2 4.9 5.9 6.0 6.4 5.4 5.4 5.6 6.0 6.5 6.5 6.5 6.5 6.5 6.3 6.8 7.0 6.9 6.9 7.0 7.0 7.5 6.8 6.4
-1.8 -2.2 -2.4 -2.5 -2.7 -3.1 -3.3 -3.7 -3.9 -4.2 -4.4 -4.7 -5.0 -5.3 -5.7 -6.3 1.2 4.3 1.4 3.1 1.2 1.7 5.9 6.6 6.4 4.9 6.0 6.0 6.6 6.4 6.5 6.5 6.6 6.4 6.8 6.6 6.3 7.4 6.6 6.5 6.9 6.5 7.3 7.6 6.4
-1.4 -2.0 -2.5 -2.5 -2.9 -3.2 -3.4 -3.8 -4.1 -4.4 -4.6 -4.7 -4.7 -4.8 -5.4 -3.4 6.5 5.5 1.2 1.2 1.0 3.3 5.8 7.2 6.2 4.3 6.1 6.5 4.6 6.5 6.8 6.8 6.7 6.6 6.9 6.4 6.5 6.6 6.2 6.9 6.7 6.8 7.2 7.1 6.1
-1.4 -1.7 -2.3 -2.6 -2.9 -3.2 -3.7 -4.2 -4.4 -4.6 -4.7 -4.6 -4.5 -4.3 -1.6 3.2 2.7 3.0 1.2 1.2 1.8 3.9 5.8 7.0 4.4 5.0 6.5 6.4 6.8 6.6 6.6 6.9 6.5 6.7 6.2 6.9 6.3 6.3 6.7 7.1 7.3 7.8 7.6 6.3 6.0
-1.8 -1.9 -2.2 -2.7 -2.9 -3.2 -3.7 -4.6 -5.0 -4.8 -4.7 -4.5 -4.0 -3.8 1.2 5.7 4.7 1.6 1.4 1.7 3.8 4.6 5.5 6.5 3.8 5.0 6.0 6.3 6.4 6.6 6.7 6.6 6.6 5.8 6.6 6.5 6.5 6.1 7.1 7.2 7.4 7.5 6.7 6.5 5.8
-2.0 -2.2 -2.4 -2.8 -3.0 -3.4 -3.8 -4.7 -5.2 -5.1 -4.6 -4.2 -3.7 -0.9 2.0 2.5 4.7 2.7 2.7 3.6 4.1 5.2 5.8 6.3 4.6 5.0 4.9 6.4 7.0 6.3 6.6 6.5 6.4 5.9 6.5 6.0 6.5 6.5 7.2 7.4 7.2 7.0 6.3 6.6 6.3
-1.6 -2.2 -2.5 -2.9 -3.3 -4.0 -4.5 -5.1 -5.1 -4.6 -3.9 -3.6 -2.7 -0.4 1.5 1.8 3.4 3.8 4.3 4.6 5.1 4.9 5.3 5.2 5.9 6.1 5.6 4.7 6.6 6.5 6.5 6.5 6.5 6.0 6.4 6.0 6.5 6.4 7.1 7.1 6.9 7.1 6.8 6.4 5.9
-1.7 -2.1 -2.4 -2.8 -3.8 -4.5 -5.2 -5.5 -4.6 -3.3 -2.7 -2.6 -0.4 1.9 2.2 3.2 4.4 4.5 4.5 5.6 5.6 5.3 5.0 7.9 5.6 5.8 6.3 6.5 6.5 6.5 6.5 6.5 6.5 6.4 6.5 6.5 6.5 6.4 7.3 7.0 6.8 6.9 6.9 7.0 6.4
-1.8 -2.0 -2.4 -3.1 -3.6 -5.2 -5.7 -5.4 -3.8 -2.2 -1.1 1.6 3.8 4.4 2.0 4.2 5.3 5.5 4.5 5.6 6.4 6.1 5.7 6.2 4.0 6.5 6.5 6.5 6.5 6.5 6.5 6.5 6.5 6.5 6.5 6.6 6.5 6.5 6.5 6.6 6.6 6.9 6.3 6.7 7.0
-1.6 -2.1 -2.5 -3.1 -3.6 -5.1 -6.8 -4.1 2.1 3.4 3.6 2.4 2.4 2.3 4.7 5.7 6.5 6.3 5.4 6.8 6.5 5.9 6.5 4.6 6.5 6.6 6.5 6.5 6.5 6.5 6.5 6.5 6.5 6.5 6.5 6.5 6.5 6.5 6.4 6.3 6.4 6.2 6.6 6.7 6.0
-1.6 -2.1 -2.8 -3.3 -4.0 -4.8 -6.7 -0.9 3.1 5.8 4.7 2.8 3.8 4.1 3.9 5.2 6.1 5.4 4.6 5.6 5.6 6.5 6.3 6.5 6.5 6.5 6.5 6.5 6.6 6.5 6.5 6.5 6.5 6.5 6.5 6.5 6.5 6.5 6.4 6.4 6.4 6.4 6.2 6.2 5.6
-1.6 -2.1 -2.8 -3.8 -4.4 -5.4 -3.8 -0.0 1.5 3.5 4.6 4.4 2.7 2.8 2.5 3.9 5.1 3.4 4.3 4.0 6.2 6.5 6.5 6.5 6.5 6.4 6.5 6.5 6.5 6.5 6.5 6.5 6.5 6.6 6.5 6.5 6.5 6.5 6.5 6.3 6.6 6.6 6.4 6.4 5.3
-1.5 -2.0 -2.7 -4.3 -0.9 -3.8 -0.6 1.8 1.3 2.8 6.5 6.4 5.9 4.3 5.6 5.5 5.6 4.6 4.0 4.6 6.1 6.4 6.5 6.5 6.3 6.5 6.5 6.5 6.5 6.5 6.5 6.5 6.5 6.5 6.5 6.5 6.4 6.5 6.5 6.5 6.4 5.2 5.8 6.4 5.9
-1.3 -2.1 -2.8 -4.3 -6.0 -1.8 3.1 -0.2 1.0 2.8 6.5 6.5 5.9 5.1 2.8 4.8 5.4 5.8 4.6 4.8 6.5 6.5 6.5 6.5 6.5 6.5 6.5 6.5 6.5 6.5 6.5 6.5 6.5 6.5 6.5 6.5 6.5 6.5 6.5 6.5 6.5 5.4 6.0 6.2 6.2
-1.3 -2.0 -3.3 -3.3 -5.8 -4.1 -2.3 -1.6 1.7 6.5 6.5 6.5 5.7 6.4 6.3 5.1 5.7 5.1 5.3 5.4 4.2 6.5 6.6 6.5 5.5 6.5 6.5 6.5 6.4 6.5 6.5 6.4 6.5 6.5 6.5 6.5 6.5 6.5 6.5 6.5 6.5 5.9 5.5 5.5 6.2
-1.8 -2.3 -3.4 -2.3 -1.4 -1.5 -1.9 1.1 6.5 6.6 6.5 6.5 6.5 6.5 6.5 6.5 6.6 6.4 6.5 6.5 6.5 6.5 6.5 6.5 6.5 6.3 6.3 6.5 6.5 6.5 6.5 6.5 6.5 6.5 6.5 6.5 6.5 6.5 6.5 6.5 6.5 6.5 4.9 3.9 3.6
-2.4 -2.9 -4.3 -4.3 -3.7 -1.6 0.6 5.8 6.6 6.4 6.5 6.5 6.5 6.5 6.5 6.5 6.5 6.5 6.5 6.5 6.5 6.5 6.5 6.5 6.5 6.5 6.5 6.6 6.4 6.5 6.5 6.5 6.5 6.5 6.5 6.5 6.4 6.6 6.4 5.8 4.5 5.6 5.5 4.3 3.2
-2.7 -4.0 -4.2 -4.6 -3.5 -1.2 2.3 6.5 6.6 6.5 6.4 6.5 6.5 6.5 6.5 6.5 6.5 6.5 6.5 6.5 6.5 6.5 6.5 6.4 6.5 6.5 6.5 6.5 6.5 6.5 6.5 6.5 6.5 6.4 6.5 6.5 6.5 6.5 6.5 6.5 5.6 4.5 3.9 4.4 5.4
-2.9 -4.2 -2.9 0.6 -1.0 0.8 5.4 6.5 6.5 6.4 6.5 6.5 6.5 6.5 6.5 6.5 6.5 6.6 6.5 6.5 6.5 6.4 5.3 6.5 6.5 6.5 6.5 6.2 6.3 6.5 6.5 6.5 6.5 6.5 6.5 6.5 6.5 6.5 6.5 6.5 6.5 6.5 6.2 3.9 3.2
-2.2 2.1 1.1 1.1 0.6 1.7 6.5 6.5 6.5 5.6 5.8 6.5 6.5 6.5 6.5 6.5 6.6 6.5 6.6 6.5 6.5 6.5 5.9 6.5 6.5 6.5 6.5 6.5 6.5 6.5 6.5 6.4 6.5 6.5 6.5 6.5 6.5 6.5 6.5 6.5 6.5 6.2 5.2 2.9 3.2
-1.5 6.5 3.2 3.1 4.0 3.9 6.5 6.5 4.3 6.1 5.2 6.5 6.5 6.5 6.5 6.5 6.5 6.5 6.5 6.5 4.3 5.3 6.5 6.5 6.5 6.5 6.5 6.5 6.5 6.5 6.5 6.5 6.5 6.5 6.5 6.5 6.5 6.5 6.5 5.9 5.0 4.4 4.1 2.8 2.0
-0.1 2.0 4.9 3.3 6.5 6.5 6.0 6.5 5.8 6.5 6.5 6.5 6.5 6.5 6.4 6.5 6.6 6.5 6.5 5.8 4.3 6.4 6.5 6.5 6.5 6.5 6.5 6.5 6.5 6.5 6.5 6.6 6.5 6.5 6.5 6.5 6.5 6.5 5.5 5.4 5.3 4.9 4.9 2.6 1.4
1.3 6.5 3.0 3.2 1.6 6.4 6.5 6.5 6.4 5.2 6.2 5.8 6.6 6.4 6.5 6.5 6.5 6.5 6.5 6.4 5.2 5.4 2.7 4.2 6.5 6.4 6.5 6.5 6.5 6.5 6.5 6.5 6.5 6.5 6.5 6.5 6.5 6.5 6.5 6.5 5.6 4.7 4.1 3.0 4.0
1.5 5.4 5.6 6.5 5.8 6.4 6.4 6.5 6.5 6.4 5.8 5.6 6.5 6.5 6.6 6.5 6.5 6.5 6.4 6.5 6.3 4.0 5.7 6.5 6.4 6.5 6.5 6.5 6.4 6.5 6.5 6.5 6.5 6.5 6.5 6.5 6.5 6.5 6.5 6.5 4.8 4.2 3.3 4.9 3.7
2.6 4.5 3.5 4.0 4.4 6.5 6.5 6.5 6.5 6.5 6.5 6.5 6.5 6.5 6.5 6.5 6.5 6.5 6.5 6.5 6.5 6.5 6.5 6.5 6.5 6.5 6.5 6.5 6.5 6.5 6.5 6.4 6.5 6.5 6.5 6.5 6.5 6.5 5.3 5.1 5.5 4.7 5.0 5.1 3.1
3.0 3.2 3.7 4.0 6.1 6.5 6.5 6.5 6.5 6.3 5.7 5.9 6.4 6.5 6.5 6.4 5.8 4.8 4.5 4.0 6.0 6.5 6.5 6.5 6.5 6.5 6.5 6.5 6.5 6.5 6.5 6.5 6.5 6.5 6.5 6.5 6.5 6.4 6.5 6.0 5.1 3.8 4.4 5.4 4.9
Wind_Speed
16 17 17 17 18 18 18 18 18 18 18 18 18 18 17 18 21 3 5 9 5 11 4 3 4 7 6 4 3 2 3 3 2 1 4 11 14 8 9 16 7 5 13 18 22
16 17 18 18 18 18 18 19 18 18 18 19 19 18 18 17 3 6 8 9 8 17 4 4 6 6 4 2 2 3 1 3 6 5 5 8 16 15 9 16 7 15 18 21 20
16 17 18 18 19 19 19 19 19 19 19 19 19 19 18 13 3 5 4 12 12 9 1 3 2 5 5 5 6 5 3 5 11 10 6 13 9 16 18 7 21 23 22 20 18
16 18 18 19 19 20 21 20 20 20 18 18 19 20 21 2 2 2 4 8 9 6 2 5 1 4 5 8 6 5 12 6 6 11 12 7 7 13 7 9 19 22 21 20 17
16 18 19 20 19 21 22 22 21 20 19 17 17 17 4 3 7 4 8 7 5 5 3 3 6 4 5 7 6 14 12 16 17 13 9 12 6 5 10 19 18 20 19 17 14
17 18 20 21 21 21 22 23 24 20 19 16 14 15 1 2 3 7 8 7 4 3 0 2 7 2 5 5 5 7 10 12 5 7 9 13 8 7 14 20 19 20 17 19 17
17 19 19 22 22 23 23 24 25 23 18 15 10 4 1 11 3 4 6 6 5 6 3 3 3 3 3 1 2 4 6 6 7 5 3 8 4 9 20 21 22 20 16 18 18
18 19 19 22 23 25 25 25 25 23 18 9 6 1 7 6 6 4 6 6 5 6 5 7 9 4 2 1 4 3 2 4 1 5 3 5 5 12 21 22 22 20 17 17 16
19 19 21 21 24 24 26 29 25 16 10 4 1 1 10 12 4 9 8 7 4 6 6 10 8 6 2 3 5 5 1 3 6 3 2 4 3 12 21 21 21 19 19 18 17
19 20 21 21 22 25 30 25 13 7 2 4 4 3 5 5 4 5 6 6 4 4 7 2 3 1 3 3 4 5 3 2 5 3 3 8 9 16 18 19 20 21 20 19 19
20 22 22 22 22 19 13 5 4 3 0 8 6 4 5 4 2 3 6 1 1 3 4 6 2 7 10 9 11 8 2 6 1 8 5 8 11 17 17 15 16 17 18 19 21
21 23 25 25 25 22 2 1 5 5 6 11 13 10 12 5 5 7 7 5 4 6 3 4 7 12 7 7 10 6 5 6 5 11 3 11 11 6 19 21 21 21 18 18 14
22 24 26 29 35 2 4 7 7 10 1 8 8 8 7 10 8 10 13 8 4 5 5 8 12 2 7 11 5 4 4 2 4 8 13 4 7 7 4 17 21 19 21 16 18
22 23 25 34 3 5 4 5 11 7 4 7 5 8 6 7 5 7 10 8 4 9 7 7 14 12 11 9 7 6 7 7 6 3 3 2 5 6 8 5 4 11 13 16 17
22 23 22 18 5 3 4 15 10 3 3 2 3 2 7 9 3 5 4 4 10 7 7 9 3 6 6 10 3 10 6 8 5 1 3 8 4 6 9 10 8 9 11 18 16
22 20 19 1 2 7 18 12 4 5 5 2 7 7 7 5 2 3 5 4 6 5 3 9 5 3 9 13 11 3 4 5 6 4 3 3 4 5 1 3 8 13 4 9 16
25 22 10 6 5 7 9 4 5 3 6 4 5 6 6 7 5 5 5 4 7 5 6 7 9 7 3 7 5 6 7 2 4 4 6 1 2 6 6 9 4 15 16 4 7
26 31 7 8 10 5 4 5 3 7 5 5 3 6 9 7 8 5 6 6 3 5 3 6 8 4 4 7 7 5 8 6 5 2 4 4 3 4 6 11 8 8 5 7 8
28 3 3 5 17 3 5 2 8 7 4 4 4 5 4 5 6 7 8 9 10 10 9 5 6 8 4 4 8 5 3 6 5 4 3 4 5 8 7 6 4 8 8 6 6
3 4 4 7 20 4 4 6 5 3 5 5 1 2 8 9 7 9 7 7 7 13 7 8 4 12 12 4 3 6 2 1 4 3 2 3 4 4 4 4 10 13 10 10 15
1 3 4 18 4 5 4 7 4 4 8 5 3 2 6 3 6 7 11 5 13 12 15 7 6 14 4 5 7 1 3 7 6 4 6 3 5 5 8 10 10 14 7 10 15
3 1 3 7 3 2 3 4 7 4 5 5 4 7 7 1 3 6 10 10 12 10 12 12 7 7 11 8 6 3 7 7 5 5 2 4 5 4 5 8 8 12 11 10 8
3 3 3 4 3 3 5 6 5 6 7 5 5 1 2 4 0 5 3 14 9 14 12 8 3 3 11 7 6 4 6 5 6 4 7 7 5 7 8 9 14 13 11 10 7
2 1 3 2 2 5 3 6 6 7 8 7 8 4 6 4 4 5 4 5 7 11 16 10 5 8 9 8 1 5 2 4 7 5 6 7 6 7 9 8 6 12 11 11 8
1 4 2 3 5 5 3 5 7 4 5 3 4 8 7 4 7 4 4 6 4 6 9 11 8 6 7 5 4 5 7 7 7 8 6 7 15 17 15 9 9 13 8 13 2
1 1 5 3 3 5 7 7 11 14 6 7 5 12 5 6 6 5 2 3 2 8 4 2 5 6 5 1 4 4 7 6 6 6 2 11 9 3 9 6 2 7 6 11 8
3 4 3 5 5 3 1 6 6 7 9 16 14 10 5 9 4 6 3 5 5 3 2 6 7 4 6 5 5 5 7 12 11 20 5 2 8 11 4 6 5 4 7 7 10
Wind_Direction
1 360 358 357 352 351 349 348 346 345 341 336 334 329 326 328 315 160 247 218 184 165 98 359 254 260 269 92 79 139 39 345 299 146 165 129 119 139 106 134 150 217 137 139 135
359 357 355 354 349 347 345 343 341 341 339 336 332 326 323 332 303 254 242 204 155 143 121 190 266 234 70 67 73 67 63 249 229 228 171 124 131 134 131 158 119 107 114 127 136
358 355 353 351 348 343 341 338 338 337 338 335 331 324 321 324 311 254 304 189 137 152 194 283 95 65 84 45 351 329 241 237 236 240 212 132 152 123 121 150 149 143 144 139 143
358 352 350 348 346 340 337 334 334 333 334 335 330 324 317 262 196 302 136 122 125 163 193 124 85 22 100 114 267 329 257 267 12 298 132 126 116 146 168 167 159 143 147 144 150
358 350 347 345 342 339 334 331 330 329 330 333 330 329 338 356 253 173 149 126 147 145 155 138 30 131 105 125 190 241 282 269 209 200 136 119 123 115 128 139 146 149 148 154 160
352 350 343 341 339 336 332 327 324 323 324 328 328 326 339 284 264 151 148 138 208 129 249 177 174 170 129 162 191 346 329 355 114 51 135 127 134 100 140 141 150 161 158 165 170
348 344 342 339 336 333 329 323 318 314 314 318 324 317 356 235 120 151 185 182 195 168 180 284 243 115 170 21 109 173 320 308 46 27 142 108 78 136 154 154 160 172 176 180 178
344 341 341 336 334 330 325 318 310 305 302 301 317 309 247 248 279 217 214 293 256 229 205 196 193 172 323 2 5 118 98 16 242 285 74 103 208 153 158 161 170 177 187 191 198
339 339 336 335 330 328 323 312 304 293 282 262 350 94 270 306 166 239 162 216 218 280 254 267 151 207 147 71 5 360 278 333 317 149 229 131 196 185 168 169 176 184 191 196 198
334 333 332 330 329 328 323 306 293 311 188 209 261 2 289 252 213 196 178 194 195 267 341 331 117 194 52 109 223 224 214 200 280 313 84 312 254 183 180 175 181 185 197 199 197
334 331 329 327 326 331 345 2 21 29 219 197 203 245 278 255 131 231 219 90 326 75 241 286 74 241 237 221 239 201 164 173 296 332 310 260 268 184 192 185 191 196 196 197 203
333 330 328 325 321 319 271 134 223 139 299 229 240 246 270 78 328 269 106 151 148 213 238 337 256 246 250 247 253 213 179 209 207 171 180 279 270 222 192 199 195 195 202 199 183
332 330 329 325 319 86 195 234 309 26 295 280 197 207 228 142 213 244 151 178 166 202 220 201 241 264 242 273 223 227 206 245 208 203 225 288 320 312 219 207 201 200 204 192 191
328 328 332 329 344 323 262 291 316 159 46 272 200 251 179 176 280 195 175 145 183 198 222 231 259 252 269 271 214 228 226 196 256 80 230 1 279 315 337 57 158 190 193 205 202
324 325 332 329 296 304 281 326 306 66 359 221 184 175 127 151 174 249 142 84 186 211 126 243 273 263 267 254 216 238 176 185 224 220 54 358 66 284 1 352 12 25 226 201 198
319 318 331 45 262 250 313 305 49 53 263 248 145 153 111 198 249 357 139 97 176 201 253 236 286 219 238 270 262 227 122 23 43 85 7 219 131 304 13 253 292 313 294 231 210
313 306 299 289 234 340 325 31 60 152 318 198 169 146 150 182 251 144 167 166 171 173 260 316 287 279 248 293 333 62 81 334 352 26 225 114 91 230 307 312 288 296 284 286 201
313 309 252 210 240 299 27 56 152 221 254 307 134 125 177 156 225 194 142 206 273 122 128 198 303 208 238 199 202 186 147 155 192 178 256 350 285 251 259 290 310 309 291 78 144
319 317 257 245 202 81 80 124 203 218 302 9 335 133 249 225 162 158 206 197 203 177 176 168 260 280 263 284 147 238 161 186 128 36 109 291 292 301 262 273 349 350 333 4 137
312 333 258 127 148 97 84 233 223 243 20 7 212 80 202 212 156 175 185 207 212 189 161 216 267 267 281 352 347 169 145 65 19 123 156 305 283 248 330 295 348 352 346 309 311
48 350 271 134 110 59 188 233 288 319 18 8 331 284 267 152 205 198 203 247 193 193 186 160 132 269 124 192 220 47 78 57 110 123 160 170 263 232 264 307 319 305 301 288 297
352 344 176 135 84 178 220 214 340 331 12 286 266 218 216 210 308 181 221 217 175 157 154 200 160 236 233 252 180 262 171 143 131 207 123 148 263 257 266 261 274 282 282 263 268
337 270 252 84 146 238 271 267 231 248 249 271 300 88 15 281 14 215 215 236 196 175 171 165 219 249 311 350 337 178 176 124 113 96 187 142 244 216 232 253 242 222 323 329 309
341 39 310 3 165 155 225 263 258 260 250 208 242 307 305 307 165 267 275 303 204 203 195 117 134 168 220 211 179 328 279 150 130 131 175 201 174 254 233 202 208 253 321 316 308
170 259 223 251 278 237 204 291 298 295 249 203 267 204 232 282 349 312 336 326 333 187 166 150 175 166 220 192 171 254 245 203 192 188 163 206 175 210 212 201 187 240 311 320 23
190 23 344 287 274 227 175 230 232 262 222 282 221 267 221 207 173 272 47 20 311 328 108 149 195 148 251 98 181 258 332 298 342 143 24 149 216 146 231 21 240 351 331 304 15
309 331 117 281 333 0 307 268 282 272 252 236 249 272 257 232 175 223 192 195 226 218 223 128 131 101 235 59 87 25 10 80 72 46 66 132 241 146 151 105 96 117 79 38 13